{"data":{"norad_id":51872,"epoch":"2026-09-19T23:25:26.438016Z","epoch_age_seconds":97134,"freshness":"FRESH","line1":"1 51872U 22022W   26262.97600044  .00001479  00000+0  54899-4 0  9998","line2":"2 51872  53.1616 205.8189 0001004  90.7118 269.3999 15.34390893252596","mean_motion":15.34390893,"eccentricity":0.0001004,"inclination_deg":53.1616,"raan_deg":205.8189,"arg_perigee_deg":90.7118,"mean_anomaly_deg":269.3999,"bstar":5.4899e-5,"rev_number":25259,"period_min":93.848315091636,"perigee_km":462.04348518645,"apogee_km":463.41713134195,"semimajor_km":6840.8673082642,"source":"CELESTRAK","updated_at":"2026-09-20T09:00:39.948629Z"}}